[[{"header":{"parameterUnit":"m.s-1","parameterCategory":1,"la1":30.2991,"la2":30.254,"lo1":-89.0895,"lo2":-89.0444,"dy":0.0017,"dx":0.0017,"nx":28,"ny":28,"refTime":"2025-05-23T03:00:00:Z","depth":0,"parameterNumber":2,"parameterNumberName":"U-component_of_WINDS"},"data":[0,0,0,0,0,0,0,0,0,0,0,0,0,0,0,0,0,0,0,0,0,0,0,0,0,0,0,0,0,0,0,0,0,0,0,0,0,0,0,0,0,0,0,0,0,0,0,0,0,0,0,0,0,0,0,0,0,0,1.0569,1.057,0,1.0706,1.0707,1.0709,1.0773,1.0773,1.0773,1.0773,1.0911,1.0915,1.0919,0,0,0,0,0,0,0,0,0,0,0,0,0,1.0358,1.0361,1.0568,1.057,1.0572,1.0706,1.0708,1.0709,1.0773,1.0773,1.0773,1.0773,1.091,1.0915,1.0919,0,0,0,0,0,0,0,0,0,0,0,0,0,1.0468,1.0363,1.0568,1.062,1.0626,1.0705,1.0708,1.071,1.0773,1.0773,1.0773,1.0773,1.0909,1.0914,1.092,1.0957,0,0,1.0937,1.0939,0,0,0,0,0,0,0,0,1.0461,1.0475,1.0611,1.0617,1.0623,1.0722,1.0684,1.0793,1.0773,1.0717,1.0773,1.0773,1.0848,1.0859,1.0885,1.0964,1.097,1.0937,1.0941,1.0943,1.0945,0,0,0,0,0,0,0,1.0454,1.047,1.0623,1.0612,1.062,1.0635,1.0651,1.0705,1.0782,1.0722,1.0727,1.0743,1.0852,1.0879,1.0889,1.0972,1.0937,1.0942,1.0946,1.0948,1.1086,1.1087,0,0,0,0,0,0,1.0438,1.0463,1.0618,1.0627,1.054,1.0639,1.0656,1.0691,1.0781,1.0795,1.0743,1.0745,1.087,1.0882,1.0894,1.0943,1.0943,1.0949,1.0952,1.1086,1.1086,1.1087,0,0,0,0,0,0,1.0433,1.0451,1.0613,1.0546,1.0568,1.0643,1.0681,1.0693,1.0721,1.0797,1.0811,1.0757,1.087,1.0886,1.0941,1.0949,1.0951,1.0956,1.1086,1.1086,1.1086,1.1042,0,0,0,0,0,0,1.0427,1.0449,1.0465,1.0546,1.0571,1.0659,1.0681,1.0696,1.0731,1.0736,1.0814,1.0827,1.0871,1.0932,1.0946,1.0957,1.0961,1.1085,1.1086,1.1086,1.1043,1.1041,1.1039,0,0,0,0,0,1.0419,1.0447,1.0466,1.0484,1.0593,1.0659,1.0673,1.0725,1.0731,1.0747,1.0796,1.0824,1.0945,1.0937,1.0954,1.0966,1.1085,1.1086,1.1086,1.1044,1.1041,1.1039,0,0,0,0,0,0,1.0365,1.0459,1.0481,1.0536,1.0589,1.067,1.0692,1.072,1.0772,1.0774,1.0835,1.0852,1.0901,1.0939,1.0928,1.1006,1.1018,1.1022,1.098,1.0978,1.0976,1.0966,1.0965,0,0,0,0,0,1.0359,1.0406,1.0485,1.0526,1.0552,1.0617,1.0647,1.0682,1.0739,1.0762,1.0815,1.0868,1.0918,1.095,1.1,1.1048,1.1066,1.1065,1.1063,1.106,1.1063,1.109,1.1091,1.1089,1.1089,1.1089,0,0,1.0349,1.0406,1.0431,1.0517,1.0562,1.0608,1.0635,1.0683,1.0717,1.0769,1.0824,1.0864,1.0928,1.0979,1.1004,1.1012,1.1067,1.1061,1.1059,1.1063,1.1091,1.1091,1.1091,1.1089,1.1089,1.1089,0,0,1.0352,1.04,1.044,1.0484,1.0552,1.0595,1.0604,1.068,1.0709,1.0765,1.0805,1.0845,1.0931,1.0974,1.1007,1.1024,1.1052,1.1039,1.1028,1.1054,1.1054,1.1054,1.106,1.1061,1.1041,1.1041,1.1041,0,1.033,1.0402,1.0456,1.0501,1.0536,1.0585,1.0624,1.0665,1.0745,1.0768,1.0776,1.0883,1.0929,1.0991,1.0995,1.102,1.1031,1.1031,1.105,1.1051,1.1052,1.1058,1.106,1.1039,1.1039,1.104,1.104,0,1.0371,1.0419,1.0442,1.0519,1.0557,1.0599,1.0658,1.0689,1.072,1.0761,1.0817,1.0874,1.0936,1.0953,1.0984,1.1018,1.1021,1.1038,1.1051,1.1049,1.1056,1.1058,1.1036,1.1037,1.1038,1.1038,0,0,1.0346,1.0451,1.0458,1.0493,1.0571,1.0609,1.0651,1.0713,1.0738,1.0791,1.0828,1.0898,1.0914,1.0951,1.0987,1.1009,1.1018,1.1024,1.1026,1.102,1.1059,1.1046,1.1048,1.1036,1.1037,1.1038,1.1053,0,1.036,1.0441,1.0489,1.0549,1.0594,1.064,1.0677,1.0728,1.0767,1.0809,1.0852,1.0901,1.0919,1.0941,1.0965,1.1012,1.1027,1.1011,1.1071,1.1072,1.1054,1.1051,1.1038,1.105,1.1056,1.1057,1.1057,0,1.0389,1.0441,1.0505,1.0576,1.0597,1.0629,1.0688,1.0729,1.0786,1.0813,1.0854,1.0889,1.0935,1.0943,1.1006,1.0994,1.1021,1.1047,1.1049,1.1057,1.1065,1.1059,1.1056,1.1057,1.1062,1.1062,1.1061,0,1.0363,1.0449,1.0499,1.0527,1.0612,1.0633,1.0669,1.0727,1.076,1.081,1.0832,1.0887,1.0918,1.0959,1.1008,1.1009,1.1065,1.1078,1.1088,1.1087,1.1099,1.1097,1.1099,1.1115,1.1115,1.1115,1.1115,0,1.0375,1.0412,1.0489,1.0519,1.0562,1.0616,1.0657,1.0696,1.0746,1.0784,1.0827,1.0861,1.0923,1.0965,1.1003,1.1049,1.1062,1.1084,1.1094,1.1081,1.1078,1.11,1.11,1.1116,1.1115,1.1115,1.1115,0,1.0355,1.0408,1.0464,1.0539,1.0558,1.0586,1.065,1.068,1.072,1.0768,1.0782,1.0845,1.0896,1.0949,1.1018,1.1043,1.1088,1.1101,1.1068,1.1074,1.1081,1.108,1.1098,1.1102,1.1114,1.1114,1.1114,0,1.0359,1.0389,1.0466,1.0494,1.0529,1.0575,1.0608,1.0662,1.0695,1.0762,1.0784,1.0838,1.0884,1.0963,1.1015,1.1068,1.1083,1.1085,1.1091,1.1076,1.1082,1.108,1.1083,1.1083,1.1083,1.1082,1.1082,0,1.036,1.0384,1.0431,1.0487,1.0526,1.0572,1.062,1.0641,1.0704,1.0738,1.0791,1.0827,1.0897,1.095,1.1008,1.1044,1.1073,1.108,1.1085,1.1072,1.1052,1.1063,1.1063,1.1079,1.108,1.108,1.108,1.108,1.0352,1.038,1.0438,1.0489,1.0531,1.0574,1.0606,1.065,1.0695,1.0757,1.0785,1.0837,1.0893,1.0974,1.1009,1.105,1.1058,1.1066,1.1068,1.1069,1.1065,1.1045,1.1061,1.1061,1.1061,1.1061,1.1061,0,1.0355,1.0394,1.044,1.0506,1.0545,1.0569,1.0623,1.0654,1.07,1.0749,1.0793,1.0853,1.0904,1.0959,1.1013,1.1035,1.1049,1.1047,1.1046,1.1054,1.1055,1.1045,1.1034,1.1034,1.1034,1.1034,1.1034,1.1034,1.0361,1.041,1.044,1.0509,1.0548,1.0601,1.0629,1.0668,1.0708,1.0773,1.0815,1.0851,1.0902,1.0959,1.1007,1.1021,1.1039,1.1033,1.1051,1.1052,1.1054,1.1056,1.1047,1.1036,1.1036,1.1047,1.1047,1.1047]},{"header":{"parameterUnit":"m.s-1","parameterCategory":1,"la1":30.2991,"la2":30.254,"lo1":-89.0895,"lo2":-89.0444,"dy":0.0017,"dx":0.0017,"nx":28,"ny":28,"refTime":"2025-05-23T03:00:00:Z","depth":0,"parameterNumber":3,"parameterNumberName":"V-component_of_WINDS"},"data":[0,0,0,0,0,0,0,0,0,0,0,0,0,0,0,0,0,0,0,0,0,0,0,0,0,0,0,0,0,0,0,0,0,0,0,0,0,0,0,0,0,0,0,0,0,0,0,0,0,0,0,0,0,0,0,0,0,0,0.4195,0.4196,0,0.4272,0.4273,0.4274,0.4291,0.429,0.429,0.4289,0.4368,0.437,0.4373,0,0,0,0,0,0,0,0,0,0,0,0,0,0.4059,0.4061,0.4195,0.4196,0.4197,0.4272,0.4273,0.4274,0.4291,0.429,0.429,0.4289,0.4367,0.437,0.4373,0,0,0,0,0,0,0,0,0,0,0,0,0,0.4125,0.4062,0.4195,0.4214,0.4217,0.4272,0.4273,0.4275,0.4291,0.429,0.429,0.4289,0.4366,0.437,0.4374,0.4414,0,0,0.4385,0.4387,0,0,0,0,0,0,0,0,0.4121,0.413,0.421,0.4213,0.4216,0.4271,0.4254,0.4321,0.4291,0.4263,0.4289,0.4288,0.4336,0.4343,0.4359,0.4418,0.4422,0.4386,0.4388,0.439,0.4391,0,0,0,0,0,0,0,0.4117,0.4127,0.4225,0.4211,0.4215,0.4218,0.4227,0.4267,0.4303,0.4265,0.4267,0.4276,0.4338,0.4355,0.4361,0.4423,0.4386,0.4389,0.4392,0.4393,0.4517,0.4518,0,0,0,0,0,0,0.4109,0.4123,0.4223,0.4228,0.4166,0.4221,0.4231,0.4254,0.4303,0.431,0.4276,0.4276,0.4349,0.4356,0.4364,0.4414,0.439,0.4394,0.4396,0.4516,0.4518,0.4519,0,0,0,0,0,0,0.4106,0.4118,0.422,0.4176,0.4189,0.4225,0.4251,0.4256,0.4274,0.4311,0.4318,0.4288,0.4348,0.4358,0.4401,0.4417,0.4395,0.4399,0.4515,0.4517,0.4518,0.4515,0,0,0,0,0,0,0.4102,0.4117,0.4133,0.4176,0.4191,0.4257,0.4252,0.4258,0.4281,0.4281,0.4324,0.433,0.4349,0.4395,0.4405,0.4422,0.4402,0.4514,0.4516,0.4518,0.4514,0.4517,0.4518,0,0,0,0,0,0.4097,0.413,0.4134,0.4146,0.4213,0.4258,0.4267,0.4288,0.4282,0.4298,0.4322,0.4329,0.4413,0.44,0.4411,0.4429,0.4513,0.4515,0.4518,0.4513,0.4516,0.4518,0,0,0,0,0,0,0.4088,0.4136,0.4141,0.4188,0.4219,0.4261,0.4283,0.429,0.4323,0.4322,0.4346,0.4356,0.4397,0.4417,0.4401,0.447,0.4463,0.4467,0.4456,0.4459,0.4461,0.4455,0.4405,0,0,0,0,0,0.4091,0.4124,0.4164,0.4202,0.4217,0.4247,0.4267,0.4281,0.4313,0.4326,0.4353,0.4384,0.4417,0.4439,0.4472,0.4517,0.4526,0.4534,0.4537,0.4538,0.4542,0.4566,0.457,0.4526,0.4526,0.4526,0,0,0.4099,0.4129,0.4148,0.4201,0.4226,0.4259,0.4258,0.4293,0.4317,0.4331,0.4374,0.4394,0.443,0.4474,0.4495,0.4492,0.4556,0.4541,0.4542,0.4545,0.4568,0.4572,0.4576,0.4527,0.4527,0.4527,0,0,0.413,0.4156,0.419,0.4215,0.4253,0.4272,0.428,0.432,0.4335,0.4378,0.4388,0.4417,0.4475,0.4499,0.4519,0.4557,0.4564,0.4567,0.4578,0.4601,0.4604,0.4607,0.462,0.4625,0.457,0.457,0.457,0,0.4134,0.4185,0.4206,0.4241,0.4263,0.4276,0.431,0.4333,0.438,0.4395,0.4391,0.4462,0.4487,0.4536,0.4545,0.4561,0.457,0.4563,0.4602,0.4606,0.4609,0.4621,0.4626,0.457,0.457,0.457,0.457,0,0.4188,0.4223,0.4245,0.429,0.4315,0.4348,0.4374,0.4396,0.4406,0.4426,0.4468,0.4499,0.4537,0.455,0.4561,0.46,0.4597,0.4597,0.4591,0.4613,0.4625,0.463,0.457,0.457,0.457,0.457,0,0,0.4217,0.4271,0.4279,0.4299,0.4341,0.4368,0.4401,0.4439,0.4457,0.4488,0.4517,0.4564,0.4564,0.4587,0.46,0.462,0.4647,0.4618,0.4619,0.4622,0.4691,0.469,0.4695,0.4651,0.4652,0.4653,0.4687,0,0.4253,0.4314,0.4333,0.4384,0.4416,0.4428,0.4457,0.4485,0.4504,0.4532,0.4552,0.4585,0.4583,0.4597,0.4617,0.4639,0.4661,0.4637,0.4677,0.4678,0.4668,0.4702,0.4702,0.4733,0.4692,0.4693,0.4694,0,0.4303,0.4334,0.4388,0.4425,0.4439,0.4465,0.45,0.4528,0.4559,0.4571,0.4595,0.4607,0.4641,0.4631,0.4678,0.4662,0.4679,0.4692,0.4693,0.4698,0.4688,0.4707,0.4744,0.4749,0.4701,0.4701,0.47,0,0.4318,0.4374,0.4413,0.4429,0.4473,0.4491,0.451,0.454,0.4561,0.4592,0.4605,0.4639,0.4658,0.4683,0.4703,0.4694,0.4748,0.474,0.4758,0.4757,0.4769,0.4768,0.4809,0.478,0.478,0.478,0.478,0,0.4356,0.4388,0.442,0.4444,0.448,0.4501,0.4536,0.4555,0.4582,0.461,0.4622,0.4647,0.4671,0.4699,0.4715,0.4751,0.4759,0.4769,0.4773,0.4768,0.4767,0.478,0.4779,0.4781,0.4781,0.478,0.478,0,0.4379,0.4402,0.4445,0.4482,0.4492,0.4517,0.4549,0.4572,0.459,0.4624,0.4633,0.4662,0.4695,0.4717,0.476,0.477,0.4809,0.4812,0.4799,0.48,0.4817,0.4815,0.4868,0.4875,0.4841,0.4841,0.4841,0,0.4402,0.4427,0.4467,0.4486,0.4505,0.4536,0.4557,0.4577,0.4599,0.4635,0.4654,0.4688,0.4717,0.4769,0.4793,0.4825,0.4829,0.4846,0.4834,0.4828,0.4829,0.4828,0.483,0.4848,0.4848,0.4848,0.4848,0,0.444,0.445,0.448,0.4514,0.4538,0.4566,0.4593,0.4608,0.4633,0.4656,0.4691,0.4713,0.4756,0.4789,0.4823,0.4842,0.4849,0.4851,0.4857,0.4853,0.4844,0.4848,0.4804,0.485,0.485,0.485,0.485,0.485,0.4464,0.4487,0.4517,0.455,0.4573,0.4598,0.4621,0.4641,0.467,0.4707,0.4717,0.4753,0.4782,0.4828,0.4847,0.4874,0.4873,0.4881,0.4883,0.4885,0.4885,0.4839,0.4881,0.4881,0.4881,0.4881,0.4881,0,0.4503,0.4523,0.4552,0.459,0.4615,0.462,0.465,0.467,0.4702,0.4728,0.4756,0.4794,0.4826,0.4852,0.4884,0.4901,0.4905,0.4909,0.4908,0.4912,0.4885,0.4877,0.4905,0.4905,0.4905,0.4905,0.4905,0.4905,0.4526,0.4563,0.4576,0.4624,0.4644,0.4679,0.4696,0.4718,0.4739,0.4782,0.4809,0.4825,0.4851,0.4885,0.4914,0.492,0.4932,0.4935,0.4942,0.4917,0.4914,0.4911,0.4904,0.4937,0.4937,0.4967,0.4967,0.4967]}]]